[[{"header":{"parameterUnit":"m.s-1","parameterCategory":1,"la1":30.2991,"la2":30.254,"lo1":-89.0895,"lo2":-89.0444,"dy":0.0017,"dx":0.0017,"nx":28,"ny":28,"refTime":"2025-09-06T21:00:00:Z","depth":0,"parameterNumber":2,"parameterNumberName":"U-component_of_WINDS"},"data":[0,0,0,0,0,0,0,0,0,0,0,0,0,0,0,0,0,0,0,0,0,0,0,0,0,0,0,0,0,0,0,0,0,0,0,0,0,0,0,0,0,0,0,0,0,0,0,0,0,0,0,0,0,0,0,0,0,0,-2.5959,-2.596,0,-2.604,-2.6041,-2.6042,-2.5953,-2.595,-2.5946,-2.5943,-2.6028,-2.6033,-2.6038,0,0,0,0,0,0,0,0,0,0,0,0,0,-2.5729,-2.5734,-2.5959,-2.596,-2.5961,-2.604,-2.6041,-2.6042,-2.5954,-2.5949,-2.5945,-2.5941,-2.6026,-2.6032,-2.6039,0,0,0,0,0,0,0,0,0,0,0,0,0,-2.5821,-2.5735,-2.5959,-2.5926,-2.5924,-2.604,-2.6041,-2.6042,-2.5954,-2.5949,-2.5944,-2.5939,-2.6024,-2.6032,-2.604,-2.6192,0,0,-2.6065,-2.6068,0,0,0,0,0,0,0,0,-2.5816,-2.583,-2.593,-2.5929,-2.5927,-2.5981,-2.5991,-2.6092,-2.5956,-2.5943,-2.5943,-2.5937,-2.6016,-2.6025,-2.6051,-2.6196,-2.6199,-2.6065,-2.607,-2.6074,-2.6076,0,0,0,0,0,0,0,-2.581,-2.5826,-2.5991,-2.5932,-2.593,-2.5908,-2.5915,-2.601,-2.6007,-2.5944,-2.5937,-2.5948,-2.6015,-2.6044,-2.6053,-2.6201,-2.6065,-2.6072,-2.6077,-2.608,-2.6473,-2.6479,0,0,0,0,0,0,-2.5807,-2.5821,-2.5988,-2.5993,-2.5858,-2.5916,-2.5925,-2.5969,-2.6006,-2.6007,-2.5952,-2.5944,-2.6032,-2.6043,-2.6055,-2.6236,-2.6074,-2.6081,-2.6086,-2.6468,-2.6475,-2.6481,0,0,0,0,0,0,-2.5802,-2.5823,-2.5985,-2.5906,-2.5925,-2.5926,-2.5976,-2.5973,-2.6002,-2.6013,-2.6012,-2.5983,-2.6029,-2.6044,-2.6158,-2.6238,-2.6085,-2.6092,-2.6461,-2.647,-2.6478,-2.6599,0,0,0,0,0,0,-2.5796,-2.5822,-2.5879,-2.5908,-2.5929,-2.6087,-2.5981,-2.5978,-2.6016,-2.6006,-2.6041,-2.6042,-2.6026,-2.6147,-2.6166,-2.6246,-2.6099,-2.6454,-2.6465,-2.6475,-2.6588,-2.6611,-2.663,0,0,0,0,0,-2.5788,-2.5911,-2.5883,-2.5904,-2.6001,-2.6092,-2.6104,-2.6083,-2.6023,-2.6081,-2.6088,-2.6041,-2.6225,-2.6159,-2.6181,-2.6264,-2.6449,-2.6462,-2.6474,-2.6579,-2.6606,-2.663,0,0,0,0,0,0,-2.5893,-2.5914,-2.5883,-2.6019,-2.6054,-2.6077,-2.615,-2.6113,-2.6167,-2.6155,-2.6126,-2.6135,-2.6257,-2.6271,-2.6197,-2.6413,-2.6327,-2.6345,-2.64,-2.6426,-2.6446,-2.6442,-2.6105,0,0,0,0,0,-2.5932,-2.6003,-2.6017,-2.6136,-2.6155,-2.6149,-2.6188,-2.6168,-2.6204,-2.6219,-2.6234,-2.6271,-2.6337,-2.6382,-2.6443,-2.6589,-2.6596,-2.6657,-2.6678,-2.6695,-2.6711,-2.6789,-2.6817,-2.6522,-2.6522,-2.6521,0,0,-2.6013,-2.6033,-2.608,-2.6157,-2.6182,-2.6258,-2.6163,-2.6246,-2.6302,-2.6232,-2.6341,-2.6353,-2.6393,-2.6523,-2.6582,-2.6539,-2.6793,-2.6711,-2.6724,-2.6731,-2.6805,-2.6833,-2.6858,-2.653,-2.6529,-2.6527,0,0,-2.62,-2.6222,-2.6323,-2.6349,-2.6388,-2.6384,-2.6408,-2.6436,-2.6441,-2.655,-2.6499,-2.6564,-2.6679,-2.6709,-2.674,-2.6936,-2.6895,-2.6957,-2.7067,-2.7144,-2.7167,-2.7188,-2.7259,-2.7285,-2.6972,-2.6972,-2.6973,0,-2.6296,-2.6407,-2.6379,-2.6467,-2.6502,-2.6441,-2.6543,-2.657,-2.6628,-2.6654,-2.6605,-2.6747,-2.677,-2.6907,-2.6955,-2.6981,-2.7008,-2.6954,-2.7166,-2.7186,-2.7205,-2.7273,-2.73,-2.698,-2.6979,-2.6978,-2.6978,0,-2.6524,-2.6602,-2.6678,-2.6735,-2.6779,-2.6873,-2.686,-2.6908,-2.6883,-2.6884,-2.6995,-2.7019,-2.7085,-2.7115,-2.7093,-2.7249,-2.7222,-2.717,-2.7084,-2.7241,-2.7304,-2.733,-2.699,-2.6988,-2.6986,-2.6984,0,0,-2.6783,-2.6821,-2.685,-2.6875,-2.6912,-2.6972,-2.7062,-2.7126,-2.7168,-2.7208,-2.7285,-2.7382,-2.7334,-2.7369,-2.7349,-2.7416,-2.7571,-2.7355,-2.7356,-2.7396,-2.7747,-2.7787,-2.7818,-2.7543,-2.7548,-2.7551,-2.7744,0,-2.6971,-2.7129,-2.7106,-2.7259,-2.7331,-2.7272,-2.7351,-2.7383,-2.7385,-2.7446,-2.7448,-2.7519,-2.7449,-2.747,-2.7533,-2.7539,-2.7642,-2.7524,-2.7615,-2.7619,-2.761,-2.7851,-2.7894,-2.8075,-2.7768,-2.7772,-2.7775,0,-2.7213,-2.7263,-2.7422,-2.7448,-2.7477,-2.7549,-2.7605,-2.7664,-2.7698,-2.7695,-2.7733,-2.77,-2.7792,-2.7702,-2.7828,-2.7749,-2.7784,-2.7792,-2.7798,-2.7808,-2.7709,-2.7869,-2.8132,-2.816,-2.7814,-2.7811,-2.7808,0,-2.7388,-2.7494,-2.7603,-2.7626,-2.7658,-2.771,-2.7726,-2.7755,-2.7795,-2.7843,-2.7868,-2.7927,-2.796,-2.8006,-2.799,-2.7926,-2.812,-2.8028,-2.8121,-2.8122,-2.8167,-2.8165,-2.8441,-2.8186,-2.8185,-2.8185,-2.8184,0,-2.7603,-2.7704,-2.7682,-2.775,-2.786,-2.7832,-2.7943,-2.7951,-2.7977,-2.8046,-2.7998,-2.8063,-2.8037,-2.81,-2.8088,-2.8195,-2.821,-2.821,-2.8207,-2.8216,-2.8217,-2.8241,-2.8229,-2.8192,-2.819,-2.8189,-2.8188,0,-2.7818,-2.7808,-2.7923,-2.7944,-2.7951,-2.8032,-2.8049,-2.8113,-2.811,-2.8197,-2.8216,-2.8213,-2.8285,-2.8272,-2.8353,-2.8344,-2.8478,-2.8458,-2.8467,-2.8463,-2.8557,-2.8549,-2.8861,-2.8901,-2.8618,-2.862,-2.8623,0,-2.7957,-2.8033,-2.8061,-2.8103,-2.8123,-2.8191,-2.8231,-2.8205,-2.8248,-2.8293,-2.8351,-2.8418,-2.8472,-2.859,-2.8595,-2.8655,-2.8637,-2.8742,-2.8647,-2.8654,-2.8641,-2.8638,-2.8646,-2.8762,-2.8766,-2.8768,-2.877,0,-2.8206,-2.8197,-2.8255,-2.8312,-2.836,-2.8404,-2.8443,-2.848,-2.8458,-2.8509,-2.8582,-2.8623,-2.8704,-2.8772,-2.8828,-2.8845,-2.8805,-2.88,-2.8825,-2.8837,-2.884,-2.8842,-2.8521,-2.8794,-2.8791,-2.879,-2.8788,-2.8787,-2.8389,-2.8454,-2.8484,-2.855,-2.8576,-2.8614,-2.8674,-2.8679,-2.8739,-2.8803,-2.8783,-2.8867,-2.8898,-2.897,-2.8992,-2.9057,-2.9018,-2.9054,-2.9063,-2.9073,-2.9086,-2.8827,-2.9067,-2.9066,-2.9065,-2.9065,-2.9064,0,-2.8637,-2.8653,-2.8714,-2.877,-2.8822,-2.8777,-2.8818,-2.8865,-2.8939,-2.8971,-2.9024,-2.9108,-2.9173,-2.9182,-2.9244,-2.9294,-2.9277,-2.9311,-2.9309,-2.9313,-2.9116,-2.9089,-2.9324,-2.9324,-2.9324,-2.9324,-2.9324,-2.9324,-2.8772,-2.888,-2.8874,-2.8993,-2.9008,-2.9089,-2.9116,-2.915,-2.9176,-2.9271,-2.9325,-2.933,-2.9353,-2.9416,-2.9474,-2.9475,-2.9501,-2.9543,-2.9537,-2.9353,-2.9327,-2.9303,-2.9277,-2.9548,-2.9548,-2.9729,-2.9731,-2.9732]},{"header":{"parameterUnit":"m.s-1","parameterCategory":1,"la1":30.2991,"la2":30.254,"lo1":-89.0895,"lo2":-89.0444,"dy":0.0017,"dx":0.0017,"nx":28,"ny":28,"refTime":"2025-09-06T21:00:00:Z","depth":0,"parameterNumber":3,"parameterNumberName":"V-component_of_WINDS"},"data":[0,0,0,0,0,0,0,0,0,0,0,0,0,0,0,0,0,0,0,0,0,0,0,0,0,0,0,0,0,0,0,0,0,0,0,0,0,0,0,0,0,0,0,0,0,0,0,0,0,0,0,0,0,0,0,0,0,0,-6.2045,-6.2046,0,-6.2125,-6.2126,-6.2127,-6.2038,-6.2035,-6.2032,-6.2028,-6.2106,-6.2111,-6.2116,0,0,0,0,0,0,0,0,0,0,0,0,0,-6.1807,-6.1812,-6.2045,-6.2046,-6.2047,-6.2125,-6.2126,-6.2127,-6.2039,-6.2035,-6.2031,-6.2027,-6.2104,-6.211,-6.2116,0,0,0,0,0,0,0,0,0,0,0,0,0,-6.1901,-6.1814,-6.2044,-6.2012,-6.201,-6.2125,-6.2126,-6.2128,-6.204,-6.2035,-6.203,-6.2025,-6.2102,-6.2109,-6.2117,-6.2266,0,0,-6.2141,-6.2144,0,0,0,0,0,0,0,0,-6.1896,-6.191,-6.2016,-6.2015,-6.2012,-6.2067,-6.2071,-6.2174,-6.2041,-6.2028,-6.2028,-6.2022,-6.2096,-6.2104,-6.213,-6.227,-6.2273,-6.2142,-6.2146,-6.215,-6.2152,0,0,0,0,0,0,0,-6.189,-6.1906,-6.2076,-6.2017,-6.2015,-6.1991,-6.1999,-6.209,-6.2089,-6.2029,-6.2023,-6.2034,-6.2094,-6.2123,-6.2131,-6.2274,-6.2141,-6.2148,-6.2153,-6.2156,-6.2538,-6.2543,0,0,0,0,0,0,-6.1888,-6.1901,-6.2074,-6.2079,-6.1941,-6.2,-6.2008,-6.2054,-6.2088,-6.2089,-6.2038,-6.2029,-6.2112,-6.2123,-6.2134,-6.2309,-6.215,-6.2157,-6.2161,-6.2532,-6.2539,-6.2545,0,0,0,0,0,0,-6.1883,-6.1904,-6.2071,-6.1988,-6.2008,-6.2009,-6.2061,-6.2059,-6.2087,-6.2095,-6.2094,-6.2068,-6.2109,-6.2123,-6.2234,-6.2311,-6.216,-6.2168,-6.2526,-6.2534,-6.2542,-6.2663,0,0,0,0,0,0,-6.1876,-6.1903,-6.1961,-6.1991,-6.2013,-6.2172,-6.2066,-6.2064,-6.2102,-6.2091,-6.2123,-6.2123,-6.2106,-6.2223,-6.2242,-6.2319,-6.2174,-6.2519,-6.253,-6.2539,-6.2652,-6.2674,-6.2693,0,0,0,0,0,-6.1868,-6.1991,-6.1965,-6.1986,-6.2086,-6.2176,-6.2189,-6.2168,-6.2108,-6.2166,-6.217,-6.2122,-6.23,-6.2235,-6.2255,-6.2336,-6.2514,-6.2527,-6.2538,-6.2643,-6.267,-6.2693,0,0,0,0,0,0,-6.1969,-6.1994,-6.1965,-6.2102,-6.2138,-6.2161,-6.2233,-6.2197,-6.225,-6.2237,-6.2207,-6.2215,-6.2333,-6.2345,-6.2273,-6.2481,-6.2397,-6.2414,-6.2469,-6.2495,-6.2515,-6.2509,-6.218,0,0,0,0,0,-6.2008,-6.2081,-6.2098,-6.2217,-6.2237,-6.2232,-6.2271,-6.2251,-6.2287,-6.2301,-6.2314,-6.2348,-6.2411,-6.2454,-6.2512,-6.2653,-6.2658,-6.2718,-6.2739,-6.2756,-6.2771,-6.2844,-6.2871,-6.2585,-6.2585,-6.2585,0,0,-6.2087,-6.211,-6.2158,-6.2238,-6.2263,-6.2338,-6.2245,-6.2328,-6.2382,-6.2313,-6.2419,-6.2429,-6.2465,-6.2592,-6.2648,-6.2606,-6.2851,-6.2772,-6.2785,-6.2791,-6.286,-6.2887,-6.2911,-6.2593,-6.2592,-6.2591,0,0,-6.227,-6.2296,-6.2397,-6.2425,-6.2465,-6.2461,-6.2485,-6.2514,-6.2519,-6.2625,-6.2574,-6.2637,-6.2747,-6.2774,-6.2803,-6.2995,-6.2952,-6.3015,-6.3122,-6.3194,-6.3216,-6.3236,-6.3303,-6.3328,-6.3029,-6.303,-6.303,0,-6.2363,-6.2476,-6.2453,-6.254,-6.2575,-6.2517,-6.2617,-6.2645,-6.2702,-6.2726,-6.2679,-6.2815,-6.2835,-6.2966,-6.3013,-6.3039,-6.3063,-6.3011,-6.3216,-6.3235,-6.3253,-6.3317,-6.3342,-6.3037,-6.3036,-6.3035,-6.3035,0,-6.2588,-6.2666,-6.2742,-6.2801,-6.2844,-6.2938,-6.2927,-6.2974,-6.295,-6.295,-6.3058,-6.308,-6.3142,-6.3171,-6.3149,-6.3299,-6.3271,-6.3221,-6.3135,-6.3288,-6.3347,-6.3372,-6.3047,-6.3045,-6.3043,-6.3041,0,0,-6.2837,-6.2881,-6.2909,-6.2934,-6.2974,-6.3033,-6.3122,-6.3184,-6.3224,-6.3265,-6.3338,-6.3432,-6.3384,-6.3417,-6.3396,-6.346,-6.3609,-6.34,-6.3401,-6.3438,-6.3774,-6.3811,-6.384,-6.3581,-6.3585,-6.3589,-6.377,0,-6.302,-6.3177,-6.3158,-6.3308,-6.3379,-6.3324,-6.3401,-6.3433,-6.3435,-6.3494,-6.3495,-6.3562,-6.3495,-6.3514,-6.3575,-6.3578,-6.3676,-6.3565,-6.3646,-6.3649,-6.3638,-6.3871,-6.3912,-6.4082,-6.3793,-6.3797,-6.38,0,-6.3254,-6.3305,-6.3462,-6.349,-6.3519,-6.359,-6.3644,-6.3701,-6.3735,-6.3732,-6.3768,-6.3736,-6.3823,-6.3736,-6.3855,-6.378,-6.3811,-6.3818,-6.3824,-6.383,-6.3734,-6.3883,-6.4136,-6.4161,-6.3837,-6.3834,-6.3831,0,-6.3419,-6.3526,-6.3634,-6.3657,-6.3693,-6.3743,-6.376,-6.3788,-6.3826,-6.3873,-6.3897,-6.3952,-6.3983,-6.4025,-6.4008,-6.3947,-6.413,-6.4042,-6.4128,-6.4128,-6.4168,-6.4166,-6.4429,-6.4191,-6.419,-6.419,-6.4189,0,-6.3625,-6.3723,-6.3708,-6.3774,-6.3882,-6.3858,-6.3964,-6.3973,-6.3999,-6.4064,-6.402,-6.4081,-6.4056,-6.4115,-6.4102,-6.4201,-6.4215,-6.4214,-6.4209,-6.4217,-6.4218,-6.4237,-6.4225,-6.4197,-6.4195,-6.4194,-6.4193,0,-6.3827,-6.3821,-6.3935,-6.3959,-6.3967,-6.4045,-6.4065,-6.4125,-6.4124,-6.4207,-6.4225,-6.4222,-6.429,-6.4277,-6.4351,-6.4342,-6.4466,-6.4447,-6.4455,-6.4451,-6.4537,-6.4529,-6.4821,-6.4858,-6.4597,-6.4599,-6.4602,0,-6.3958,-6.4032,-6.4065,-6.4106,-6.4127,-6.4194,-6.4233,-6.4211,-6.4253,-6.4296,-6.4352,-6.4415,-6.4465,-6.4575,-6.4578,-6.4634,-6.4615,-6.4714,-6.4623,-6.4629,-6.4615,-6.4611,-6.4617,-6.4732,-6.4735,-6.4737,-6.4739,0,-6.4192,-6.4185,-6.4244,-6.4301,-6.4349,-6.4393,-6.4432,-6.4468,-6.4449,-6.4498,-6.4567,-6.4606,-6.4682,-6.4745,-6.4797,-6.4811,-6.4772,-6.4768,-6.479,-6.4799,-6.4801,-6.48,-6.4503,-6.4761,-6.4759,-6.4757,-6.4756,-6.4755,-6.4361,-6.4424,-6.4457,-6.4523,-6.4551,-6.4588,-6.4646,-6.4652,-6.471,-6.4772,-6.4755,-6.4833,-6.4862,-6.4928,-6.4949,-6.5008,-6.4971,-6.5004,-6.5012,-6.502,-6.503,-6.4792,-6.5017,-6.5017,-6.5016,-6.5015,-6.5015,0,-6.4591,-6.461,-6.4671,-6.4728,-6.4779,-6.474,-6.478,-6.4825,-6.4895,-6.4927,-6.4977,-6.5056,-6.5117,-6.5125,-6.5182,-6.5227,-6.521,-6.5243,-6.5239,-6.5242,-6.5061,-6.5035,-6.5255,-6.5255,-6.5255,-6.5255,-6.5255,-6.5255,-6.4717,-6.4821,-6.4818,-6.4935,-6.4951,-6.5029,-6.5055,-6.5089,-6.5114,-6.5204,-6.5255,-6.5261,-6.5282,-6.534,-6.5393,-6.5394,-6.5416,-6.5455,-6.5449,-6.5279,-6.5255,-6.5232,-6.5208,-6.5461,-6.5461,-6.5625,-6.5627,-6.5628]}]]